Location: Argonnex
(45.9500°N, 6.1333°E)
Time: 07:00:31
(UTC+00:00)

Cosmos 1867 - Pass Details

Date: 28 January 2023
Orbit: 778 x 797 km, 65.0° (Epoch: 21 March)

Event Time Altitude Azimuth Distance (km) Brightness Sun altitude
Rises 17:35:22 0° 323° (NW) 3,310 7.1 -10.7°
Reaches altitude 10° 17:37:48 10° 323° (NW) 2,377 6.3 -11.1°
Maximum altitude 17:43:17 84° 236° (SW) 808 3.7 -12.1°
Drops below altitude 10° 17:48:43 10° 149° (SSE) 2,358 5.8 -13.0°
Sets 17:51:07 0° 149° (SSE) 3,282 6.6 -13.4°
